Regional Weather Roundup
Issued by NWS

Home | Current Version | Previous Version | Text Only | Print | Product List | Glossary Off
Versions: 1 2 3 4 5 6 7 8 9 10 11 12 13 14 15 16 17 18 19 20 21 22 23 24 25 26 27 28 29 30 31 32 33 34 35 36 37 38 39 40 41 42 43 44 45 46 47 48 49 50

000
ASUS43 KDTX 270101
RWRMI
MICHIGAN HOURLY REGIONAL WEATHER ROUNDUP
NATIONAL WEATHER SERVICE DETROIT/PONTIAC MI
800 PM EST SUN FEB 26 2017

NOTE: "FAIR" INDICATES FEW OR NO CLOUDS BELOW 12,000 FEET WITH NO
SIGNIFICANT WEATHER AND/OR OBSTRUCTION TO VISIBILITY.

MIZ047>049-052>055-059>063-066>070-074>076-081>083-270200-
SOUTHEAST LOWER MICHIGAN

CITY           SKY/WX    TMP DP  RH WIND       PRES   REMARKS
ADRIAN         CLEAR     37  23  56 SW13      30.04R WCI  29
ALMA           CLEAR     37  20  49 SW8       29.94R WCI  31
ANN ARBOR      CLOUDY    38  22  52 S12       30.01R WCI  30
BAD AXE        CLEAR     37  22  54 SW13G20   29.93R WCI  28
CARO           CLOUDY    37  22  55 SW10      29.93S WCI  30
DETROIT CITY   CLEAR     39  21  48 SW18G25   30.02R WCI  30
DETROIT        PTCLDY    39  22  50 SW18      30.04R WCI  30
FLINT          CLEAR     38  22  52 SW12      29.97R WCI  30
GROSSE ILE     CLEAR     39  22  49 SW12G17   30.04R WCI  32
HILLSDALE      CLOUDY    37  21  52 SW13G18   30.01R WCI  29
HOWELL         MOCLDY    38  20  48 SW9G16    29.98R WCI  32

CITY           SKY/WX    TMP DP  RH WIND       PRES   REMARKS
JACKSON        CLOUDY    40  20  44 SW13      30.00R WCI  32
LAMBERTVILLE   CLEAR     41  20  43 SW12G18   30.06R
LANSING        CLEAR     36  21  54 SW10      29.97R WCI  28
LAPEER         CLOUDY    39  21  48 SW10G21   29.96R WCI  32
MASON          MOCLDY    38  25  58 SW7       29.98R WCI  33
MONROE         CLEAR     39  23  51 SW9       30.04S WCI  33
MT. CLEMENS    PTCLDY    39  22  50 SW12G22   29.99R WCI  32
PONTIAC        PTCLDY    38  21  50 SW10      29.97R WCI  31
PORT HOPE        N/A     37  23  56 SW9G17    29.90R WCI  30
PORT HURON     CLOUDY    37  21  52 SW10G16   29.99S WCI  30
TRI CITIES     CLEAR     35  25  66 SW9       29.94R WCI  28
MIDLAND        FAIR      38  21  50 SW7       29.92R WCI  32
TROY           MOCLDY    40  19  42 SW16      30.02R WCI  32
SAGINAW HB     PTCLDY    36  25  64 SW8       29.94R WCI  29
$$
MIZ043>046-050>051-056>058-064>065-071>073-077>080-270200-
SOUTHWEST LOWER MICHIGAN

CITY           SKY/WX    TMP DP  RH WIND       PRES   REMARKS
BATTLE CREEK   CLOUDY    38  24  57 SW12      29.99R WCI  30
BENTON HARBOR  PTCLDY    43  21  41 SW12      29.99R
BIG RAPIDS     CLEAR     35  25  66 SW8       29.90R WCI  28
COLDWATER      CLOUDY    40  21  45 SW13      30.01R WCI  33
FREMONT        FAIR      34  27  73 SW8       29.93R WCI  28
HOLLAND        PTCLDY    39  26  59 SW10      29.97R WCI  32
GRAND RAPIDS   PTCLDY    38  22  52 SW13      29.96R WCI  30
IONIA          FAIR      37  22  54 SW12      29.95R WCI  29
KALAMAZOO      MOCLDY    40  21  46 SW10      29.99R WCI  33
LUDINGTON      MOCLDY    36  32  84 SW13      29.91R WCI  28
MARSHALL       CLOUDY    40  22  48 SW12      29.99R WCI  33
MOUNT PLEASANT CLEAR     36  24  61 SW8       29.92R WCI  30
MUSKEGON       CLEAR     38  30  73 SW12      29.95R WCI  30
SOUTH HAVEN    PTCLDY    43  22  42 SW13G21   29.98R
$$
MIZ016>042-270200-
NORTHERN LOWER MICHIGAN

CITY           SKY/WX    TMP DP  RH WIND       PRES   REMARKS
ALPENA         PTCLDY    34  25  69 SW10      29.83R WCI  26
BEAVER ISLAND  MOCLDY    34  28  77 W18G30    29.79R WCI  23
BELLAIRE       CLOUDY    35  27  73 SW7       29.84R WCI  29
CADILLAC       CLOUDY    32  25  73 SW12      29.85R WCI  23
CHARLEVOIX     MOCLDY    35  28  76 SW17G26   29.84R WCI  25
FRANKFORT      CLOUDY    38  31  75 SW12G18   29.87R WCI  30
GAYLORD        CLOUDY    33  23  66 SW15      29.80R WCI  23
GRAYLING       CLOUDY    34  25  69 SW6       29.85R WCI  29
HARBOR SPRINGS CLOUDY    34  27  75 SW16G26   29.79S WCI  23
HOUGHTON LAKE  CLEAR     33  23  66 SW9       29.86R WCI  25
MANISTEE       CLOUDY    38  28  67 SW12G24   29.88R WCI  30
OSCODA         CLEAR     34  22  62 SW13      29.86R WCI  25
PELLSTON       CLOUDY    36  24  62 SW15G23   29.78R WCI  27
ROGERS CITY    PTCLDY    32  26  79 SW10      29.81R WCI  24
TRAVERSE CITY  CLOUDY    36  26  67 SW7       29.84R WCI  30
$$
MIZ007>008-015-270200-
EASTERN UPPER MICHIGAN

CITY           SKY/WX    TMP DP  RH WIND       PRES   REMARKS
KINROSS        FLURRIES  30  28  92 SW8       29.74S WCI  22
MACKINAC ISLAN LGT SNOW  31  28  86 MISG      29.76R VSB 3/4
NEWBERRY       CLOUDY    28  24  87 W18G26    29.76R FOG     WCI  15
S. S. MARIE    CLEAR     31  24  75 SW14      29.72R WCI  21
MUNISING         N/A     28  15  58 NW15G33   29.81R WCI  16
$$
MIZ004>006-011>014-085-270200-
CENTRAL UPPER MICHIGAN

CITY           SKY/WX    TMP DP  RH WIND       PRES   REMARKS
MANISTIQUE     MOCLDY    29  26  86 W16G24    29.80R WCI  18
ESCANABA       PTCLDY    29  22  75 W7        29.84R WCI  22
MENOMINEE      CLEAR     34  19  54 VRB6      29.85R WCI  29
SAWYER-GWINN   PTCLDY    23  16  74 W12G23    29.80R WCI  12
$$
MIZ001>003-009>011-084-270200-
WESTERN UPPER MICHIGAN

CITY           SKY/WX    TMP DP  RH WIND       PRES   REMARKS
IRON MOUNTAIN  CLEAR     27  15  61 W9        29.81R WCI  18
HOUGHTON       MIX PCPN  20   7  57 W26G33    29.79R WCI   2
COPPER HARBOR    N/A     22   7  52 N20G35    29.81R WCI   7
IRONWOOD       CLEAR     17   6  62 W7        29.87R WCI   8
$$

ABBREVIATIONS USED IN REMARKS
   TC - TEMPERATURE IN CELSIUS
  WCI - WIND CHILL INDEX
   HX - HEAT INDEX
  VSB - VISIBILITY




USA.gov is the U.S. government's official web portal to all federal, state and local government web resources and services.